Flag for Germany Weather past 2 weeks in Buxtehude, Lower Saxony, Germany

Now
54 °F

Partly sunny.


Feels Like: 51 °F
Forecast: 44 / 71 °F
Wind: 9 mph from Southwest

Location: Hamburg-Finkenwerder

Current Time: Jul 31, 2015 at 7:54:22 AM

Latest Report: Jul 31, 2015 at 7:20 AM


Visibility: N/A

Pressure: 30.01 "Hg

Humidity: 88%

Dew point: 50 °F

Location of BuxtehudeLocation

Historic Weather in Buxtehude — Graph

°F

Buxtehude temperature yesterday

Maximum temperature yesterday: 63 °F (at 4:20 PM)
Minimum temperature yesterday: 55 °F (at 6:20 AM)
Average temperature yesterday: 58 °F

Past Weeks' High & Low Weather Summary

 TemperatureHumidityPressure
High88 °F (Jul 17, 4:20 PM)100% (Jul 18, 7:50 AM)30.09 "Hg (Jul 18, 7:50 AM)
Low54 °F (Jul 20, 5:50 AM)41% (Jul 24, 4:20 PM)29.45 "Hg (Jul 27, 2:50 PM)
Average65 °F75%29.81 "Hg
* Reported Jul 16 6:20 AM — Jul 31 6:50 AM, Buxtehude, Weather by CustomWeather, © 2015

Note: Actual official high and low records may vary slightly from our data, if they occured in-between our weather recording intervals... More about our weather records

Advertising

Buxtehude weather history for previous 24 hours

 ConditionsComfort  
Time TempWeatherWind HumidityBarometerVisibility
6:50 AM
Fri, Jul 31
54 °FBroken clouds.8 mph88%30.01 "HgN/A
6:20 AM54 °FSprinkles. Partly cloudy.13 mph94%30.01 "HgN/A
5:50 AM54 °FPartly cloudy.10 mph88%30.01 "HgN/A
8:20 PM
Thu, Jul 30
57 °FBroken clouds.20 mph88%29.92 "HgN/A
7:50 PM57 °FSprinkles. Broken clouds.21 mph88%29.89 "HgN/A
7:20 PM59 °FScattered showers. Broken clouds.17 mph77%29.89 "HgN/A
6:50 PM59 °FScattered showers. Scattered clouds.20 mph77%29.89 "HgN/A
6:20 PM61 °FScattered showers. Scattered clouds.21 mph72%29.89 "HgN/A
5:50 PM61 °FSprinkles. Scattered clouds.25 mph77%29.89 "HgN/A
5:20 PM61 °FScattered showers. Scattered clouds.23 mph72%29.86 "HgN/A
4:50 PM59 °FScattered showers. Scattered clouds.23 mph82%29.86 "HgN/A
4:20 PM63 °FScattered showers. Scattered clouds.20 mph68%29.86 "HgN/A
3:50 PM61 °FScattered showers. Scattered clouds.24 mph68%29.83 "HgN/A
3:20 PM61 °FScattered clouds.23 mph72%29.83 "HgN/A
2:50 PM59 °FScattered showers. Partly sunny.21 mph82%29.83 "HgN/A
2:20 PM61 °FSprinkles. Partly sunny.21 mph72%29.83 "HgN/A
1:50 PM61 °FScattered showers. Broken clouds.18 mph77%29.80 "HgN/A
1:20 PM61 °FBroken clouds.20 mph77%29.80 "HgN/A
12:50 PM59 °FBroken clouds.22 mph82%29.80 "HgN/A
12:20 PM59 °FScattered showers. Broken clouds.21 mph77%29.80 "HgN/A
11:50 AM59 °FBroken clouds.18 mph82%29.77 "HgN/A
11:20 AM55 °FLight rain. Broken clouds.23 mph94%29.77 "HgN/A
10:20 AM55 °FLight rain. Broken clouds.18 mph94%29.77 "Hg5 mi
10:01 AM55 °FDrizzle. Broken clouds.17 mph100%29.77 "Hg5 mi
9:50 AM55 °FDrizzle. Broken clouds.23 mph94%29.77 "Hg4 mi
9:20 AM57 °FSprinkles. Partly sunny.20 mph88%29.74 "HgN/A
8:50 AM55 °FSprinkles. Broken clouds.22 mph94%29.74 "HgN/A
8:20 AM55 °FBroken clouds.22 mph94%29.71 "HgN/A
7:50 AM55 °FBroken clouds.21 mph100%29.71 "HgN/A
7:20 AM55 °FLight rain. Partly sunny.21 mph100%29.71 "Hg6 mi
Weather by CustomWeather, © 2015

See weather overviewHow to use our weather pages